[[{"header":{"parameterUnit":"m.s-1","parameterCategory":1,"la1":30.2991,"la2":30.254,"lo1":-89.0895,"lo2":-89.0444,"dy":0.0017,"dx":0.0017,"nx":28,"ny":28,"refTime":"2025-06-21T21:00:00:Z","depth":0,"parameterNumber":2,"parameterNumberName":"U-component_of_WINDS"},"data":[0,0,0,0,0,0,0,0,0,0,0,0,0,0,0,0,0,0,0,0,0,0,0,0,0,0,0,0,0,0,0,0,0,0,0,0,0,0,0,0,0,0,0,0,0,0,0,0,0,0,0,0,0,0,0,0,0,0,-0.4007,-0.4007,0,-0.3977,-0.3976,-0.3976,-0.394,-0.3939,-0.3938,-0.3938,-0.3909,-0.3909,-0.3909,0,0,0,0,0,0,0,0,0,0,0,0,0,-0.4036,-0.4036,-0.4007,-0.4007,-0.4006,-0.3977,-0.3976,-0.3976,-0.394,-0.3939,-0.3938,-0.3938,-0.3909,-0.3909,-0.3909,0,0,0,0,0,0,0,0,0,0,0,0,0,-0.4017,-0.4036,-0.4007,-0.3985,-0.3982,-0.3977,-0.3976,-0.3976,-0.394,-0.3939,-0.3938,-0.3937,-0.3909,-0.3909,-0.3909,-0.3924,0,0,-0.3908,-0.3908,0,0,0,0,0,0,0,0,-0.4018,-0.4016,-0.3988,-0.3986,-0.3983,-0.3961,-0.3976,-0.3958,-0.394,-0.3956,-0.3938,-0.3937,-0.3927,-0.3925,-0.3922,-0.3922,-0.3921,-0.3908,-0.3907,-0.3907,-0.3907,0,0,0,0,0,0,0,-0.4019,-0.4017,-0.3995,-0.3988,-0.3985,-0.3977,-0.3973,-0.3972,-0.3947,-0.3955,-0.3952,-0.3949,-0.3926,-0.3922,-0.3921,-0.3921,-0.3908,-0.3907,-0.3907,-0.3907,-0.3933,-0.3933,0,0,0,0,0,0,-0.4024,-0.4018,-0.3996,-0.3994,-0.3999,-0.3977,-0.3973,-0.3969,-0.3947,-0.3942,-0.3949,-0.3947,-0.3923,-0.3921,-0.392,-0.3936,-0.3907,-0.3907,-0.3907,-0.3932,-0.3933,-0.3934,0,0,0,0,0,0,-0.4024,-0.4022,-0.3997,-0.4005,-0.4001,-0.3977,-0.3974,-0.3969,-0.3965,-0.3943,-0.3938,-0.395,-0.3922,-0.392,-0.3923,-0.3934,-0.3907,-0.3907,-0.3931,-0.3932,-0.3933,-0.3968,0,0,0,0,0,0,-0.4025,-0.4022,-0.4027,-0.4006,-0.4001,-0.4,-0.3974,-0.3969,-0.3964,-0.3961,-0.3942,-0.3938,-0.3922,-0.3924,-0.3923,-0.3933,-0.3906,-0.393,-0.3931,-0.3933,-0.3966,-0.3971,-0.3975,0,0,0,0,0,-0.4026,-0.4039,-0.4028,-0.4025,-0.4007,-0.4001,-0.3999,-0.3978,-0.3965,-0.397,-0.3956,-0.3939,-0.3933,-0.3924,-0.3923,-0.3934,-0.3929,-0.3931,-0.3933,-0.3964,-0.397,-0.3975,0,0,0,0,0,0,-0.4063,-0.4036,-0.4023,-0.4028,-0.4017,-0.3995,-0.4001,-0.3985,-0.3978,-0.3975,-0.3951,-0.3947,-0.3953,-0.3943,-0.3934,-0.3947,-0.3928,-0.393,-0.3953,-0.3958,-0.3962,-0.3965,-0.3906,0,0,0,0,0,-0.4072,-0.4069,-0.4045,-0.4053,-0.4047,-0.4025,-0.4022,-0.4007,-0.3995,-0.399,-0.3976,-0.3966,-0.3961,-0.3959,-0.3954,-0.3965,-0.396,-0.3971,-0.3976,-0.3979,-0.3981,-0.3987,-0.3991,-0.394,-0.394,-0.394,0,0,-0.409,-0.4075,-0.4074,-0.406,-0.4049,-0.4047,-0.4021,-0.4021,-0.4019,-0.399,-0.3992,-0.3981,-0.3968,-0.3975,-0.3977,-0.3967,-0.3994,-0.3982,-0.3985,-0.3985,-0.3989,-0.3994,-0.3998,-0.3942,-0.3941,-0.3941,0,0,-0.4122,-0.411,-0.4115,-0.4105,-0.4089,-0.4074,-0.4075,-0.4055,-0.4047,-0.4048,-0.4026,-0.4024,-0.4018,-0.4009,-0.4004,-0.4033,-0.4017,-0.4032,-0.4055,-0.406,-0.4064,-0.4068,-0.4078,-0.4082,-0.4034,-0.4034,-0.4034,0,-0.4147,-0.4142,-0.4119,-0.412,-0.4114,-0.4087,-0.4092,-0.4084,-0.4068,-0.4065,-0.4054,-0.4045,-0.4034,-0.4038,-0.4045,-0.4042,-0.4043,-0.4034,-0.4065,-0.4068,-0.4071,-0.4081,-0.4085,-0.4036,-0.4036,-0.4036,-0.4035,0,-0.4174,-0.4171,-0.4177,-0.4161,-0.4156,-0.4159,-0.4137,-0.4135,-0.4121,-0.4108,-0.4109,-0.4095,-0.4087,-0.4087,-0.4073,-0.409,-0.4084,-0.407,-0.405,-0.4079,-0.4088,-0.4091,-0.4039,-0.4038,-0.4037,-0.4037,0,0,-0.4229,-0.42,-0.4202,-0.4195,-0.4175,-0.4173,-0.4175,-0.4166,-0.4165,-0.4155,-0.4157,-0.4151,-0.4138,-0.4132,-0.4117,-0.4122,-0.4146,-0.4107,-0.4106,-0.4115,-0.4164,-0.4175,-0.418,-0.4135,-0.4136,-0.4136,-0.4165,0,-0.4257,-0.4258,-0.4238,-0.4244,-0.4242,-0.4216,-0.4218,-0.4207,-0.4194,-0.4191,-0.4178,-0.4174,-0.4156,-0.4153,-0.4156,-0.4142,-0.4156,-0.414,-0.4137,-0.4138,-0.4142,-0.4185,-0.4197,-0.4224,-0.4169,-0.4169,-0.4169,0,-0.4291,-0.4282,-0.4289,-0.4269,-0.4267,-0.4269,-0.4259,-0.4256,-0.4243,-0.4234,-0.4227,-0.421,-0.4212,-0.4193,-0.4195,-0.4185,-0.4183,-0.4176,-0.4176,-0.4176,-0.4156,-0.4186,-0.4233,-0.4237,-0.4175,-0.4174,-0.4174,0,-0.4331,-0.432,-0.4323,-0.4317,-0.4294,-0.4296,-0.4287,-0.4273,-0.4269,-0.4261,-0.4258,-0.4251,-0.4247,-0.4242,-0.4223,-0.4211,-0.4227,-0.4207,-0.422,-0.4221,-0.4225,-0.4225,-0.4273,-0.4223,-0.4223,-0.4223,-0.4223,0,-0.4366,-0.4371,-0.434,-0.4342,-0.4347,-0.4324,-0.433,-0.4318,-0.4306,-0.4305,-0.4283,-0.4283,-0.4258,-0.4256,-0.4242,-0.4246,-0.4244,-0.4237,-0.4234,-0.424,-0.4241,-0.4238,-0.4236,-0.4224,-0.4224,-0.4224,-0.4224,0,-0.4411,-0.4391,-0.4392,-0.437,-0.4365,-0.4369,-0.4351,-0.4352,-0.4338,-0.4338,-0.4336,-0.4315,-0.4311,-0.4292,-0.4284,-0.4274,-0.4283,-0.4275,-0.4288,-0.4285,-0.4299,-0.4299,-0.4348,-0.4353,-0.4299,-0.43,-0.43,0,-0.4435,-0.4438,-0.4416,-0.4414,-0.4405,-0.4402,-0.4397,-0.4374,-0.4371,-0.4356,-0.436,-0.4354,-0.4348,-0.4343,-0.4327,-0.4321,-0.4313,-0.4331,-0.4312,-0.4318,-0.4314,-0.4314,-0.4314,-0.4335,-0.4335,-0.4336,-0.4336,0,-0.4479,-0.4469,-0.4463,-0.4453,-0.4449,-0.444,-0.4431,-0.4431,-0.4405,-0.4403,-0.4398,-0.4393,-0.4385,-0.4379,-0.437,-0.4362,-0.4345,-0.4342,-0.4345,-0.4352,-0.4359,-0.4355,-0.4299,-0.4341,-0.4341,-0.4341,-0.434,-0.434,-0.4515,-0.4516,-0.4501,-0.4495,-0.4486,-0.4477,-0.4477,-0.4463,-0.4458,-0.4449,-0.4436,-0.4433,-0.442,-0.4406,-0.4399,-0.4397,-0.4388,-0.4392,-0.4393,-0.4394,-0.4397,-0.4358,-0.4395,-0.4395,-0.4395,-0.4395,-0.4395,0,-0.4558,-0.4547,-0.4542,-0.4529,-0.4525,-0.4508,-0.4497,-0.4495,-0.4492,-0.4481,-0.4476,-0.4471,-0.4465,-0.4449,-0.4442,-0.4444,-0.4436,-0.4443,-0.4443,-0.4441,-0.4406,-0.4404,-0.4449,-0.4449,-0.4449,-0.4449,-0.4449,-0.4449,-0.458,-0.4582,-0.457,-0.4568,-0.4557,-0.4553,-0.4548,-0.4541,-0.4532,-0.4527,-0.4522,-0.4511,-0.4498,-0.449,-0.4485,-0.448,-0.4479,-0.4488,-0.4482,-0.4449,-0.4444,-0.4439,-0.4437,-0.4488,-0.4488,-0.4517,-0.4517,-0.4518]},{"header":{"parameterUnit":"m.s-1","parameterCategory":1,"la1":30.2991,"la2":30.254,"lo1":-89.0895,"lo2":-89.0444,"dy":0.0017,"dx":0.0017,"nx":28,"ny":28,"refTime":"2025-06-21T21:00:00:Z","depth":0,"parameterNumber":3,"parameterNumberName":"V-component_of_WINDS"},"data":[0,0,0,0,0,0,0,0,0,0,0,0,0,0,0,0,0,0,0,0,0,0,0,0,0,0,0,0,0,0,0,0,0,0,0,0,0,0,0,0,0,0,0,0,0,0,0,0,0,0,0,0,0,0,0,0,0,0,0.0318,0.0318,0,0.032,0.032,0.032,0.0305,0.0305,0.0304,0.0304,0.0305,0.0306,0.0306,0,0,0,0,0,0,0,0,0,0,0,0,0,0.0302,0.0303,0.0318,0.0318,0.0318,0.032,0.032,0.032,0.0305,0.0305,0.0304,0.0304,0.0305,0.0306,0.0306,0,0,0,0,0,0,0,0,0,0,0,0,0,0.0307,0.0303,0.0318,0.0311,0.0311,0.032,0.032,0.032,0.0305,0.0305,0.0304,0.0303,0.0305,0.0306,0.0306,0.0323,0,0,0.0308,0.0308,0,0,0,0,0,0,0,0,0.0307,0.0308,0.0312,0.0312,0.0311,0.0312,0.0315,0.0321,0.0305,0.0307,0.0304,0.0303,0.0308,0.0308,0.031,0.0323,0.0323,0.0308,0.0309,0.0309,0.0309,0,0,0,0,0,0,0,0.0306,0.0307,0.0319,0.0312,0.0312,0.0308,0.0308,0.0316,0.0311,0.0307,0.0306,0.0306,0.0307,0.0309,0.031,0.0323,0.0308,0.0309,0.0309,0.0309,0.0349,0.035,0,0,0,0,0,0,0.0307,0.0307,0.0319,0.0319,0.0307,0.0309,0.0309,0.0312,0.0311,0.031,0.0307,0.0306,0.0309,0.0309,0.031,0.0329,0.0309,0.0309,0.031,0.0349,0.035,0.035,0,0,0,0,0,0,0.0307,0.0308,0.0319,0.0313,0.0314,0.031,0.0314,0.0312,0.0314,0.0311,0.031,0.031,0.0308,0.0309,0.032,0.0329,0.031,0.031,0.0348,0.0349,0.035,0.0368,0,0,0,0,0,0,0.0306,0.0308,0.0315,0.0313,0.0314,0.0329,0.0314,0.0313,0.0316,0.0314,0.0313,0.0313,0.0308,0.0319,0.032,0.033,0.0311,0.0347,0.0348,0.035,0.0367,0.037,0.0372,0,0,0,0,0,0.0306,0.032,0.0315,0.0316,0.0322,0.0329,0.033,0.0324,0.0316,0.0323,0.032,0.0313,0.0328,0.032,0.0322,0.0331,0.0346,0.0348,0.035,0.0366,0.0369,0.0372,0,0,0,0,0,0,0.0322,0.0319,0.0314,0.0328,0.0329,0.0327,0.0335,0.0328,0.0332,0.033,0.0323,0.0323,0.0335,0.0334,0.0325,0.0347,0.0336,0.0338,0.0347,0.0351,0.0354,0.0354,0.0311,0,0,0,0,0,0.0327,0.0333,0.0331,0.0343,0.0344,0.0339,0.0342,0.0337,0.0338,0.0339,0.0337,0.0339,0.0344,0.0347,0.0351,0.0367,0.0366,0.0374,0.0377,0.0379,0.0381,0.0389,0.0393,0.0355,0.0355,0.0355,0,0,0.0338,0.0337,0.0341,0.0346,0.0346,0.0353,0.034,0.0347,0.0352,0.034,0.035,0.0349,0.035,0.0363,0.0369,0.0363,0.0391,0.0381,0.0383,0.0383,0.0391,0.0395,0.0398,0.0356,0.0356,0.0356,0,0,0.0361,0.0361,0.0371,0.0372,0.0373,0.037,0.0372,0.0371,0.037,0.038,0.0371,0.0377,0.0386,0.0387,0.0388,0.0412,0.0405,0.0413,0.0428,0.0436,0.0439,0.0442,0.0451,0.0454,0.0415,0.0415,0.0415,0,0.0374,0.0384,0.0377,0.0386,0.0388,0.0377,0.0388,0.0389,0.0391,0.0393,0.0386,0.0397,0.0397,0.041,0.0416,0.0418,0.0421,0.0414,0.0439,0.0442,0.0444,0.0452,0.0456,0.0416,0.0416,0.0416,0.0416,0,0.04,0.0407,0.0415,0.0418,0.0421,0.0431,0.0425,0.043,0.0425,0.0422,0.0433,0.0432,0.0436,0.0439,0.0434,0.0452,0.0448,0.0441,0.0429,0.0449,0.0457,0.046,0.0418,0.0418,0.0417,0.0417,0,0,0.0433,0.0433,0.0436,0.0437,0.0437,0.0442,0.0451,0.0456,0.0459,0.0461,0.0469,0.0476,0.0469,0.0471,0.0466,0.0474,0.0493,0.0465,0.0465,0.0471,0.0512,0.0519,0.0522,0.0488,0.0488,0.0489,0.0512,0,0.0456,0.0472,0.0466,0.0482,0.0488,0.0478,0.0486,0.0487,0.0485,0.049,0.0488,0.0493,0.0483,0.0485,0.0491,0.0489,0.0501,0.0487,0.0495,0.0495,0.0496,0.0526,0.0533,0.0555,0.0515,0.0516,0.0516,0,0.0485,0.0488,0.0505,0.0504,0.0507,0.0514,0.0517,0.0522,0.0523,0.0521,0.0523,0.0517,0.0526,0.0514,0.0526,0.0517,0.0519,0.0519,0.052,0.052,0.0507,0.0528,0.0562,0.0565,0.0521,0.052,0.052,0,0.0508,0.0517,0.0528,0.0529,0.0528,0.0534,0.0534,0.0534,0.0537,0.054,0.0542,0.0546,0.0548,0.0551,0.0547,0.0538,0.0559,0.0547,0.0558,0.0558,0.0563,0.0563,0.0598,0.0565,0.0565,0.0564,0.0564,0,0.0535,0.0545,0.0538,0.0545,0.0557,0.055,0.0562,0.056,0.0561,0.0567,0.0559,0.0565,0.0558,0.0563,0.0559,0.057,0.0571,0.057,0.0569,0.0571,0.0571,0.0573,0.0571,0.0565,0.0565,0.0565,0.0565,0,0.0563,0.0559,0.057,0.0568,0.0568,0.0577,0.0576,0.0582,0.0579,0.0587,0.0589,0.0585,0.0591,0.0586,0.0592,0.0589,0.0604,0.06,0.0604,0.0603,0.0615,0.0614,0.0652,0.0657,0.062,0.062,0.0621,0,0.058,0.0588,0.0587,0.0591,0.0592,0.0598,0.0601,0.0595,0.0598,0.06,0.0606,0.0611,0.0615,0.0626,0.0623,0.0628,0.0625,0.0638,0.0625,0.0627,0.0625,0.0625,0.0626,0.064,0.0641,0.0641,0.0642,0,0.0611,0.0609,0.0614,0.0618,0.0622,0.0625,0.0627,0.0631,0.0624,0.0629,0.0635,0.0638,0.0644,0.065,0.0654,0.0653,0.0647,0.0645,0.0648,0.0651,0.0653,0.0652,0.0611,0.0645,0.0644,0.0644,0.0644,0.0644,0.0635,0.0642,0.0643,0.0648,0.0649,0.0652,0.0658,0.0656,0.0661,0.0665,0.0661,0.0669,0.067,0.0674,0.0674,0.068,0.0675,0.0679,0.068,0.0681,0.0683,0.0651,0.0681,0.0681,0.0681,0.0681,0.0681,0,0.0666,0.0666,0.0672,0.0675,0.068,0.0673,0.0675,0.0679,0.0686,0.0687,0.0692,0.0699,0.0704,0.0702,0.0707,0.0712,0.0709,0.0713,0.0713,0.0713,0.0688,0.0685,0.0716,0.0716,0.0716,0.0716,0.0716,0.0716,0.0683,0.0694,0.0692,0.0704,0.0703,0.0711,0.0713,0.0715,0.0716,0.0724,0.0729,0.0727,0.0727,0.0732,0.0737,0.0736,0.0738,0.0744,0.0742,0.0718,0.0715,0.0712,0.0709,0.0744,0.0745,0.0767,0.0768,0.0768]}]]